Weather History for KMGN - December, 2012

Change the Weather History Date:

Thursday, December 6, 2012

  Actual Average (KPLN) Record (KPLN)
Temperature  
Mean Temperature 32 °F -  
Max Temperature 38 °F 34 °F 55 °F (1998)
Min Temperature 26 °F 19 °F -21 °F (1964)
Degree Days  
Heating Degree Days 33    
Moisture  
Dew Point 24 °F    
Average Humidity 71    
Maximum Humidity 81    
Minimum Humidity 60    
Precipitation  
Precipitation 0.00 in - - ()
Sea Level Pressure  
Sea Level Pressure 30.01 in    
Wind  
Wind Speed 5 mph (South)    
Max Wind Speed 14 mph    
Max Gust Speed 21 mph    
Visibility 10 miles    
Events Rain    
Averages and records for this station are not official NWS values.
T = Trace of Precipitation, MM = Missing Value Source: NWS Daily Summary

Daily Weather History Graph

Daily Weather History Graph

Search for Another Location

Airport or City:

Trip Planner

Search our weather history database for the weather conditions in past years. The results will help you decide how hot, cold, wet, or windy it might be!

Date:

Astronomy

Dec. 06, 2012 Rise Set
Actual Time 8:05 AM EST 4:56 PM EST
Civil Twilight 7:31 AM EST 5:30 PM EST
Nautical Twilight 6:54 AM EST 6:07 PM EST
Astronomical Twilight 6:18 AM EST 6:43 PM EST
Moon 12:00 AM EST (12/6) 12:40 PM EST (12/6)
Length of Visible Light 9h 59m
Length of Day
8h 51m
Waning Gibbous, 49% of the Moon is Illuminated
Dec 6
Waning Gibbous
Dec 13
New
Dec 20
First Quarter
Dec 28
Full
Jan 4
Last Quarter

Hourly Weather History & Observations

Time (EST) Temp. Windchill Dew Point Humidity Pressure Visibility Wind Dir Wind Speed Gust Speed Precip Events Conditions
12:15 AM 26.2 °F 22.1 °F 21.0 °F 81% 30.25 in 10.0 mi SE 3.5 mph - N/A   Clear
12:35 AM 28.0 °F 22.8 °F 21.2 °F 76% 30.27 in 10.0 mi South 4.6 mph - N/A   Clear
12:54 AM 28.0 °F 22.8 °F 20.8 °F 74% 30.25 in 10.0 mi South 4.6 mph - N/A   Clear
1:15 AM 28.0 °F 24.2 °F 20.8 °F 74% 30.24 in 10.0 mi South 3.5 mph - N/A   Clear
1:35 AM 28.2 °F - 21.0 °F 74% 30.24 in 10.0 mi Calm Calm - N/A   Clear
1:54 AM 28.2 °F 24.4 °F 20.8 °F 74% 30.25 in 10.0 mi South 3.5 mph - N/A   Clear
2:15 AM 28.2 °F 23.1 °F 20.8 °F 74% 30.24 in 10.0 mi South 4.6 mph - N/A   Clear
2:35 AM 28.2 °F 23.1 °F 20.8 °F 74% 30.24 in 10.0 mi South 4.6 mph - N/A   Clear
2:55 AM 28.4 °F 24.6 °F 21.0 °F 74% 30.23 in 10.0 mi SSE 3.5 mph - N/A   Clear
3:15 AM 28.9 °F 23.9 °F 21.2 °F 73% 30.22 in 10.0 mi South 4.6 mph - N/A   Clear
3:35 AM 29.5 °F 23.4 °F 21.7 °F 73% 30.22 in 10.0 mi South 5.8 mph - N/A   Clear
3:55 AM 29.7 °F 24.7 °F 21.7 °F 72% 30.21 in 10.0 mi South 4.6 mph - N/A   Clear
4:15 AM 29.7 °F 24.7 °F 21.9 °F 73% 30.20 in 10.0 mi SSE 4.6 mph - N/A   Clear
4:35 AM 29.7 °F 26.1 °F 21.9 °F 73% 30.19 in 10.0 mi South 3.5 mph - N/A   Clear
4:55 AM 29.7 °F 26.1 °F 21.9 °F 73% 30.18 in 10.0 mi SSE 3.5 mph - N/A   Clear
5:15 AM 29.7 °F 24.7 °F 21.7 °F 72% 30.18 in 10.0 mi SSE 4.6 mph - N/A   Scattered Clouds
5:34 AM 29.8 °F 23.9 °F 21.7 °F 72% 30.17 in 10.0 mi SSE 5.8 mph - N/A   Mostly Cloudy
5:55 AM 29.7 °F 26.1 °F 21.6 °F 72% 30.16 in 10.0 mi SSE 3.5 mph - N/A   Mostly Cloudy
6:15 AM 30.6 °F 25.8 °F 22.1 °F 71% 30.16 in 10.0 mi South 4.6 mph - N/A   Overcast
6:34 AM 30.6 °F 27.1 °F 21.9 °F 70% 30.16 in 10.0 mi South 3.5 mph - N/A   Overcast
6:55 AM 30.6 °F 27.1 °F 22.1 °F 71% 30.15 in 10.0 mi SSE 3.5 mph - N/A   Overcast
7:15 AM 30.6 °F 27.1 °F 22.1 °F 71% 30.13 in 10.0 mi SSE 3.5 mph - N/A   Mostly Cloudy
7:34 AM 30.6 °F 25.8 °F 22.1 °F 71% 30.12 in 10.0 mi SE 4.6 mph - N/A   Clear
7:55 AM 30.6 °F - 21.7 °F 70% 30.11 in 10.0 mi Calm Calm - N/A   Scattered Clouds
8:15 AM 30.7 °F 26.0 °F 21.7 °F 69% 30.11 in 10.0 mi South 4.6 mph - N/A   Mostly Cloudy
8:34 AM 30.9 °F 27.5 °F 21.9 °F 69% 30.10 in 10.0 mi SSE 3.5 mph - N/A   Scattered Clouds
8:55 AM 31.5 °F 26.8 °F 21.9 °F 68% 30.09 in 10.0 mi South 4.6 mph - N/A   Scattered Clouds
9:15 AM 32.9 °F 25.9 °F 23.2 °F 67% 30.08 in 10.0 mi South 8.1 mph - N/A   Mostly Cloudy
9:34 AM 32.9 °F 27.5 °F 23.0 °F 67% 30.07 in 10.0 mi South 5.8 mph - N/A   Overcast
10:15 AM 32.9 °F 28.5 °F 22.6 °F 66% 30.06 in 10.0 mi SSW 4.6 mph - N/A   Mostly Cloudy
10:34 AM 32.9 °F 27.5 °F 23.0 °F 67% 30.05 in 10.0 mi South 5.8 mph - N/A   Overcast
10:55 AM 32.9 °F 27.5 °F 22.5 °F 65% 30.04 in 10.0 mi SW 5.8 mph - N/A   Overcast
11:15 AM 32.9 °F 27.5 °F 22.1 °F 65% 30.02 in 10.0 mi SSE 5.8 mph - N/A   Overcast
11:34 AM 32.9 °F 29.8 °F 22.1 °F 65% 30.01 in 10.0 mi SSW 3.5 mph - N/A   Overcast
11:55 AM 33.8 °F 27.7 °F 22.6 °F 64% 30.01 in 10.0 mi South 6.9 mph - N/A   Overcast
12:15 PM 34.7 °F 27.5 °F 23.4 °F 63% 29.99 in 10.0 mi SSW 9.2 mph - N/A   Overcast
12:34 PM 35.2 °F 27.1 °F 23.4 °F 62% 29.98 in 10.0 mi South 11.5 mph - N/A   Overcast
12:55 PM 34.3 °F 29.2 °F 23.9 °F 66% 29.96 in 10.0 mi South 5.8 mph - N/A Rain Light Rain
1:15 PM 32.9 °F 28.5 °F 25.3 °F 74% 29.94 in 10.0 mi NE 4.6 mph - N/A   Light Drizzle
1:34 PM 34.2 °F 28.2 °F 27.1 °F 75% 29.95 in 10.0 mi South 6.9 mph - N/A   Overcast
1:55 PM 34.7 °F 31.8 °F 27.0 °F 73% 29.93 in 10.0 mi SSE 3.5 mph - N/A   Overcast
2:15 PM 34.9 °F 32.0 °F 27.1 °F 73% 29.91 in 5.0 mi South 3.5 mph - N/A Rain Light Rain
2:35 PM 34.2 °F 29.0 °F 27.5 °F 77% 29.90 in 10.0 mi SSE 5.8 mph - N/A   Drizzle
2:55 PM 33.6 °F 26.8 °F 27.1 °F 77% 29.89 in 7.0 mi SSE 8.1 mph - N/A   Overcast
3:15 PM 35.2 °F 29.5 °F 25.9 °F 69% 29.89 in 10.0 mi South 6.9 mph - N/A   Overcast
3:35 PM 35.2 °F 29.5 °F 24.8 °F 66% 29.88 in 10.0 mi South 6.9 mph 16.1 mph N/A   Overcast
3:55 PM 35.2 °F 30.3 °F 24.8 °F 66% 29.88 in 10.0 mi SSW 5.8 mph - N/A   Overcast
4:15 PM 35.2 °F 31.2 °F 24.4 °F 65% 29.88 in 10.0 mi South 4.6 mph - N/A   Overcast
4:35 PM 35.2 °F 30.3 °F 23.9 °F 63% 29.87 in 10.0 mi South 5.8 mph - N/A   Overcast
4:55 PM 36.0 °F - 23.9 °F 62% 29.86 in 10.0 mi Calm Calm - N/A   Overcast
5:14 PM 37.6 °F 33.1 °F 24.8 °F 60% 29.86 in 10.0 mi WSW 5.8 mph - N/A   Overcast
5:35 PM 37.6 °F 31.6 °F 26.4 °F 64% 29.87 in 10.0 mi SSW 8.1 mph - N/A   Overcast
5:55 PM 37.4 °F 32.1 °F 26.2 °F 64% 29.86 in 10.0 mi South 6.9 mph - N/A   Overcast
6:14 PM 36.9 °F 32.2 °F 26.2 °F 65% 29.86 in 10.0 mi SW 5.8 mph - N/A   Overcast
6:35 PM 36.1 °F 30.6 °F 26.1 °F 67% 29.86 in 10.0 mi SSW 6.9 mph - N/A   Overcast
6:55 PM 36.5 °F 31.8 °F 26.4 °F 67% 29.85 in 10.0 mi SSW 5.8 mph - N/A   Overcast
7:14 PM 36.0 °F 32.1 °F 25.9 °F 67% 29.84 in 10.0 mi SSW 4.6 mph - N/A   Overcast
7:35 PM 36.5 °F 32.7 °F 26.6 °F 67% 29.84 in 10.0 mi SSW 4.6 mph - N/A   Overcast
8:15 PM 36.7 °F - 27.1 °F 68% 29.84 in 10.0 mi Calm Calm - N/A   Overcast
8:35 PM 37.6 °F 30.0 °F 28.4 °F 69% 29.84 in 10.0 mi SSW 11.5 mph 18.4 mph N/A   Overcast
8:55 PM 37.9 °F 30.5 °F 28.8 °F 70% 29.83 in 10.0 mi SSW 11.5 mph 19.6 mph N/A   Overcast
9:35 PM 37.9 °F 30.0 °F 29.5 °F 72% 29.83 in 10.0 mi SSW 12.7 mph 20.7 mph N/A   Overcast
9:55 PM 37.6 °F 29.6 °F 30.7 °F 76% 29.82 in 10.0 mi SSW 12.7 mph 19.6 mph N/A   Overcast
10:15 PM 37.6 °F 29.1 °F 31.6 °F 79% 29.82 in 10.0 mi SSW 13.8 mph 20.7 mph N/A   Light Drizzle
10:35 PM 37.6 °F 29.6 °F 32.0 °F 80% 29.81 in 10.0 mi SSW 12.7 mph 19.6 mph N/A   Overcast
10:54 PM 37.8 °F 29.8 °F 32.0 °F 80% 29.81 in 10.0 mi SSW 12.7 mph 20.7 mph N/A   Overcast
11:14 PM 37.9 °F 30.5 °F 32.0 °F 79% 29.81 in 10.0 mi SSW 11.5 mph 18.4 mph N/A   Overcast
11:35 PM 38.1 °F 30.7 °F 32.2 °F 79% 29.81 in 10.0 mi SSW 11.5 mph 20.7 mph N/A   Overcast
11:55 PM 38.3 °F 31.4 °F 32.9 °F 81% 29.81 in 10.0 mi SSW 10.4 mph 17.3 mph N/A   Overcast